User: anonymous   Login
Location: Rounton
(54.4000°N, 1.3500°W)
Time: 13:36:21
(UTC+00:00)
Language:

Courier 1B - Orbit

View from above orbital plane
View from above orbital plane
View from above satellite
View from above satellite

Ground track
Ground track

The orbit data is extracted from the following two-line orbital elements,

1    58U 60013A   21343.15967244  .00000101  00000-0  18797-4 0  9992
2    58  28.3271 236.5504 0165077 217.5497 141.3417 13.46330321 11935
Epoch (UTC): 09 December 2021 03:49:55
Eccentricity: 0.0165077
inclination: 28.3271°
perigee height: 962 km
apogee height: 1209 km
right ascension of ascending node: 236.5504°
argument of perigee: 217.5497°
revolutions per day: 13.46330321
mean anomaly at epoch: 141.3417°
orbit number at epoch: 1193

The dashed part of the orbit path shows where the satellite is in the earth's shadow,  

DLR